User: anonymous   Login
Location: Unspecified
(0.0000°N, 0.0000°E)
Time: 15:18:25
(UTC+00:00)
Language:

Tiangong 1 - Orbit

View from above orbital plane
View from above orbital plane
View from above satellite
View from above satellite

Ground track
Ground track

The orbit data is extracted from the following two-line orbital elements,

1 37820U 11053A   17232.29692547  .00041675  00000-0  19772-3 0  9991
2 37820  42.7578 166.5402 0018566 178.2711 319.6039 15.81938174338116
Epoch (UTC): 20 August 2017 07:07:34
Eccentricity: 0.0018566
inclination: 42.7578°
perigee height: 312 km
apogee height: 337 km
right ascension of ascending node: 166.5402°
argument of perigee: 178.2711°
revolutions per day: 15.81938174
mean anomaly at epoch: 319.6039°
orbit number at epoch: 33811

The dashed part of the orbit path shows where the satellite is in the earth's shadow,  

DLR